EHI
0 0 0 0 0 0 0 0 0 0 0 0 0 0 0 0 0 0 0 0 0 0 0 0 0 0 0 0 0 0 0 0 0 0 0 0 0 0 0 0 0 0 0
0 0 0 0 0 0 0 0 0 0 0 0 0 0 0 0 0 0 0 0 0 0 0 0 0 0 0 0 0 0 0 0 0 0 0 0 0 0 0 0 0 0 0
0 0 0 0 0 0 0 0 0 0 0 0 0 0 0 0 0 0 0 0 0 0 0 0 0 0 0 0 0 0 0 0 0 0 0 0 0 0 0 0 0 0 0
0 0 0 0 0 0 0 0 0 0 0 0 0 0 0 0 0 0 0 0 0 0 0 0 0 0 0 0 0 0 0 0 0 0 0 0 0 0 0 0 0 0 0
0 0 0 0 0 0 0 0 0 0 0 0 0 0 0 0 0 0 0 0 0 0 0 0 0 0 0 0 0 0 0 0 0 0 0 0 0 0 0 0 0 0 0
0 0 0 0 0 0 0 0 0 0 0 0 0 0 0 0 0 0 0 0 0 0 0 0 0 0 0 0 0 0 0 0 0 0 0 0 0 0 0 0 0 0 0
0 0 0 0 0 0 0 0 0 0 0 0 0 0 0 0 0 0 0 0 0 0 0 0 0 0 0 0 0 0 0 0 0 0 0 0 0 0 0 0 0 0 0
0 0 0 0 0 0 0 0 0 0 0 0 0 0 0 0 0 0 0 0 0 0 0 0 0 0 0 0 0 0 0 0 0 0 0 0 0 0 0 0 0 0 0
0 0 0 0 0 0 0 0 0 0 0 0 0 0 0 0 0 0 0 0 0 0 0 0 0 0 0 0 0 0 0 0 0 0 0 0 0 0 0 0 0 0 0
0 0 0 0 0 0 0 0 0 0 0 0 0 0 0 0 0 0 0 0 0 0 0 0 0 0 0 0 0 0 0 0 0 0 0 0 0 0 0 0 0 0 0
0 0 0 0 0 0 0 0 0 0 0 0 0 0 0 0 0 0 0 0 0 0 0 0 0 0 0 0 0 0 0 0 0 0 0 0 0 0 0 0 0 0 0
0 0 0 0 0 0 0 0 0 0 0 0 0 0 0 0 0 0 0 0 0 0 0 0 0 0 0 0 0 0 0 0 0 0 0 0 0 0 0 0 0 0 0
0 0 0 0 0 0 0 0 0 0 0 0 0 0 0 0 0 0 0 0 0 0 0 0 0 0 0 0 0 0 0 0 0 0 0 0 0 0 0 0 0 0 0
0 0 0 0 0 0 0 0 0 0 0 0 0 0 0 0 0 0 0 0 0 0 0 0 0 0 0 0 0 0 0 0 0 0 0 0 0 0 0 0 0 0 0
0 0 0 0 0 0 0 0 0 0 0 0 0 0 0 0 0 0 0 0 0 0 0 0 0 0 0 0 0 0 0 0 0 0 0 0 0 0 0 0 0 0 0
0 0 0 0 0 0 0 0 0 0 0 0 0 0 0 0 0 0 0 0 0 0 0 0 0 0 0 0 0 0 0 0 0 0 0 0 0 0 0 0 0 0 0
0 0 0 0 0 0 0 0 0 0 0 0 0 0 0 0 0 0 0 0 0 0 0 0 0 0 0 0 0 0 0 0 0 0 0 0 0 0 0 0 0 0 0
0 0 0 0 0 0 0 0 0 0 0 0 0 0 0 0 0 0 0 0 0 0 0 0 0 0 0 0 0 0 0 0 0 0 0 0 0 0 0 0 0 0 0
0 0 0 0 0 0 0 0 0 0 0 0 0 0 0 0 0 0 0 0 0 0 0 0 0 0 0 0 0 0 0 0 0 0 0 0 0 0 0 0 0 0 0
0 0 0 0 0 0 0 0 0 0 0 0 0 0 0 0 0 0 0 0 0 0 0 0 0 0 0 0 0 0 0 0 0 0 0 0 0 0 0 0 0 0 0
0 0 0 0 0 0 0 0 0 0 0 0 0 0 0 0 0 0 0 0 0 0 0 0 0 0 0 0 0 0 0 0 0 0 0 0 0 0 0 0 0 0 0
0 0 0 0 0 0 0 0 0 0 0 0 0 0 0 0 0 0 0 0 0 0 0 0 0 0 0 0 0 0 0 0 0 0 0 0 0 0 0 0 0 0 0
0 0 0 0 0 0 0 0 0 0 0 0 0 0 0 0 0 0 0 0 0 0 0 0 0 0 0 0 0 0 0 0 0 0 0 0 0 0 0 0 0 0 0
0 0 0 0 0 0 0 0 0 0 0 0 0 0 0 0 0 0 0 0 0 0 0 0 0 0 0 0 0 0 0 0 0 0 0 0 0 0 0 0 0 0 0
0 0 0 0 0 0 0 0 0 0 0 0 0 0 0 0 0 0 0 0 0 0 0 0 0 0 0 0 0 0 0 0 0 0 0 0 0 0 0 0 0 0 0
0 0 0 0 0 0 0 0 0 0 0 0 0 0 0 0 0 0 0 0 0 0 0 0 0 0 0 0 0 0 0 0 0 0 0 0 0 0 0 0 0 0 0
Wind_Speed
17 16 16 17 17 17 19 20 20 19 16 13 12 12 12 11 10 10 12 13 13 13 12 9 9 8 7 8 8 6 5 4 3 3 3 3 4 4 3 3 3 3 3
16 15 15 16 18 19 20 20 20 20 19 15 14 12 12 10 10 9 11 13 14 14 11 12 9 9 8 9 9 7 5 4 4 3 3 3 4 4 4 4 3 4 3
18 17 16 17 18 19 21 18 21 21 20 18 12 10 9 8 9 11 11 14 15 14 13 13 11 10 10 9 9 9 9 5 5 4 4 3 3 1 4 5 4 4 4
18 17 16 17 18 19 18 20 20 20 20 19 16 17 14 13 15 12 11 13 15 15 14 14 13 11 10 10 10 10 8 7 5 4 4 5 3 4 2 3 4 5 5
18 17 17 16 17 17 17 18 19 20 20 20 20 19 16 14 11 12 13 13 13 15 15 14 13 12 10 11 10 10 10 8 7 5 4 5 4 6 5 5 4 4 5
16 16 15 14 14 14 15 16 18 19 20 20 20 20 20 17 15 15 13 12 10 12 15 15 13 13 11 12 11 10 11 9 8 7 6 5 4 5 5 6 6 5 4
14 14 15 14 14 15 16 16 18 19 19 20 20 20 20 19 18 16 15 13 11 11 14 14 14 12 12 11 11 10 10 11 10 9 7 6 6 4 4 5 5 5 4
13 14 14 14 14 15 16 17 18 19 19 19 19 19 19 14 13 15 13 13 11 12 14 15 14 13 13 11 11 9 10 9 10 9 8 6 6 5 5 5 4 5 5
13 13 13 13 13 14 15 17 18 18 18 19 19 18 18 16 15 15 14 11 11 10 14 14 14 14 13 12 11 8 10 9 9 9 9 7 6 5 5 5 5 5 6
13 13 12 12 11 11 13 14 16 17 17 17 16 13 16 16 15 13 14 13 13 12 12 13 13 13 12 12 11 9 9 9 9 7 9 8 6 5 5 5 5 6 6
13 12 11 10 10 10 11 12 14 14 15 16 16 15 15 15 14 13 14 13 12 12 12 13 12 12 12 12 11 10 10 10 9 8 9 9 7 6 5 5 5 6 6
9 9 9 9 9 10 11 12 12 13 14 14 14 14 14 14 14 13 13 12 12 12 12 11 12 12 11 11 12 11 10 10 10 9 9 9 6 8 6 5 6 6 7
7 8 9 9 10 10 10 11 12 12 12 13 13 13 13 13 13 13 12 11 11 11 11 11 11 11 11 11 11 11 10 10 10 9 9 8 8 8 6 7 6 5 5
7 8 8 9 9 9 10 10 11 11 12 12 13 13 13 13 12 12 11 11 11 10 10 10 10 10 10 9 9 9 9 8 8 7 7 7 8 8 7 6 6 5 6
7 8 8 9 9 9 9 9 10 11 11 12 12 12 11 11 11 11 10 10 10 9 9 9 9 9 8 8 8 8 8 7 7 6 6 6 6 6 6 4 5 5 5
7 7 8 9 9 9 9 9 10 10 11 12 11 11 11 11 11 10 10 10 9 9 9 9 9 9 6 8 10 8 7 7 7 6 5 5 5 7 8 9 8 8 7
7 8 9 9 9 9 10 10 10 10 11 11 11 11 11 11 11 10 10 10 10 9 9 8 8 8 7 10 11 10 7 7 6 6 5 4 4 6 5 7 9 9 10
8 8 8 8 8 8 9 9 10 11 11 11 11 11 11 11 11 11 10 10 9 8 8 8 8 7 7 10 10 10 7 5 5 5 5 5 4 4 4 4 5 7 7
9 9 9 8 8 9 10 10 10 10 11 11 11 12 12 12 12 11 11 9 8 8 7 7 7 7 7 9 10 9 5 4 4 4 4 4 4 5 5 4 5 6 5
7 7 7 8 8 9 10 11 11 11 12 12 12 11 12 12 12 11 10 8 8 7 7 6 6 6 6 8 10 9 4 4 3 3 3 4 4 4 5 5 5 5 5
7 6 7 8 9 10 12 12 11 12 11 11 11 11 11 11 11 10 9 9 8 8 7 6 5 5 5 8 9 9 4 4 4 3 3 3 4 5 5 5 4 5 4
6 6 7 8 8 11 12 12 12 10 10 11 11 11 11 9 9 10 9 9 9 8 7 7 5 4 4 5 7 8 5 4 3 3 2 2 4 4 4 4 3 4 4
6 6 7 8 8 10 12 13 11 12 12 12 12 11 11 10 10 10 10 9 8 7 6 6 5 4 3 4 6 7 6 5 3 2 2 2 3 3 3 3 3 3 2
6 6 7 9 9 10 10 10 12 13 13 13 12 11 11 10 9 7 7 7 7 7 6 6 5 5 4 4 4 4 4 4 3 2 2 3 3 2 1 2 2 2 2
5 6 8 9 10 10 10 10 12 14 14 13 12 11 10 10 9 7 5 6 5 6 7 6 6 6 5 5 6 5 4 3 3 3 2 2 2 2 1 1 1 2 2
5 6 7 8 9 10 11 11 12 14 15 13 12 9 9 8 8 8 7 7 6 7 6 6 6 4 5 8 7 6 5 5 6 3 2 2 2 2 2 2 2 2 2
Wind_Direction
226 217 211 206 202 200 200 199 197 197 193 192 193 194 198 199 200 201 202 201 201 200 203 203 202 201 206 208 209 205 205 213 215 233 242 225 222 228 220 226 224 208 219
224 214 206 202 201 200 200 200 199 196 195 195 195 198 199 200 201 199 204 203 203 202 203 206 203 201 207 210 209 206 210 203 207 234 253 247 209 203 215 222 229 232 228
225 216 207 203 201 202 200 198 198 197 197 195 192 190 192 194 197 200 202 204 203 203 204 207 206 204 206 208 208 206 209 209 202 224 243 260 265 255 197 214 225 232 241
227 223 214 206 203 203 199 199 198 197 196 193 193 191 194 197 201 199 200 201 203 204 205 206 207 206 207 209 208 207 209 211 207 203 231 257 287 270 261 210 219 233 248
225 222 217 210 205 200 196 197 197 197 195 195 197 197 202 205 201 198 200 200 200 204 205 206 206 208 208 210 207 205 206 210 213 202 198 216 233 248 260 265 248 237 237
221 221 217 210 203 196 193 194 196 197 195 196 198 201 203 203 198 197 197 196 196 201 205 206 207 208 208 208 207 205 207 209 212 209 205 204 211 218 231 255 265 267 258
218 215 210 203 199 193 192 193 195 196 195 196 200 202 204 204 203 199 200 196 195 198 204 203 206 207 207 207 204 204 207 209 210 212 214 218 227 227 233 252 266 272 272
215 211 208 202 198 193 191 192 194 195 194 196 200 202 203 203 205 205 202 200 200 201 201 202 205 206 204 203 203 205 207 208 210 215 214 215 219 217 221 237 255 267 263
212 210 206 202 197 192 191 192 192 193 193 195 197 200 201 203 205 204 205 205 204 201 199 200 203 204 203 202 200 205 205 205 210 211 213 216 216 215 221 225 230 248 270
211 208 203 197 193 191 189 191 192 192 192 193 195 197 199 202 203 202 203 204 203 199 197 198 202 202 201 200 200 203 204 204 207 208 211 215 214 210 213 220 227 234 250
203 200 197 191 185 182 184 186 188 189 190 192 193 195 197 199 201 202 203 203 202 198 197 198 199 200 200 200 200 203 199 205 207 205 212 217 214 212 213 216 225 233 240
198 193 186 180 177 179 181 183 185 187 188 188 190 193 194 194 197 199 200 199 199 197 197 195 196 199 199 199 201 202 201 205 208 208 212 217 212 220 218 218 224 233 238
184 180 177 179 179 178 179 181 183 184 183 183 186 188 191 192 194 196 195 194 194 193 191 192 194 197 198 198 201 201 200 205 210 209 211 214 210 220 220 222 228 234 241
182 180 178 180 178 178 178 179 181 180 178 180 183 187 189 190 190 190 190 189 188 187 187 190 193 194 193 194 195 198 200 205 210 210 211 212 212 220 224 226 233 237 242
187 188 185 181 179 177 177 178 177 176 175 178 181 185 183 182 183 184 184 182 182 183 182 184 187 188 188 190 189 191 195 200 206 210 214 219 221 226 226 226 230 231 240
199 196 192 186 185 184 179 176 176 174 175 177 179 177 176 176 177 177 176 174 175 176 177 183 184 186 186 180 182 185 190 197 203 210 214 217 218 225 230 234 236 233 239
210 203 200 196 191 189 181 178 175 169 173 175 174 173 173 173 173 169 169 172 175 174 177 180 182 186 183 174 179 182 190 196 203 207 207 209 218 220 231 237 239 240 244
221 215 208 202 195 187 180 172 166 169 171 171 172 171 170 170 167 168 171 172 172 173 175 177 179 179 175 172 177 178 192 197 201 203 205 210 215 215 225 236 242 247 247
233 222 211 202 189 181 173 165 166 169 170 174 173 171 169 167 167 169 170 168 166 167 167 169 173 174 168 167 170 171 183 190 196 195 202 207 217 215 218 229 243 255 261
239 222 206 195 188 178 167 167 170 173 179 177 172 168 167 167 167 167 164 160 159 158 155 159 167 168 164 161 166 173 175 184 185 186 198 207 221 214 215 232 243 254 264
238 218 200 195 189 174 168 173 174 181 176 165 161 161 163 163 161 157 156 154 150 149 151 150 154 158 156 158 165 172 178 181 183 190 200 205 210 217 224 243 253 266 282
232 213 199 193 182 176 173 175 179 170 158 156 156 156 157 152 152 151 151 152 152 151 151 150 147 147 148 154 166 174 179 177 186 196 202 200 201 216 225 239 268 275 278
228 211 197 186 182 181 179 176 168 157 155 153 153 151 149 150 153 152 152 152 156 155 156 157 156 150 147 149 159 170 173 174 182 177 177 182 187 208 219 238 258 261 266
225 206 190 185 184 180 180 170 157 156 154 153 151 150 148 147 148 147 152 155 159 159 159 161 160 154 156 157 161 167 166 163 169 158 156 167 169 197 234 235 236 254 269
221 203 195 187 180 172 167 159 157 156 153 150 148 148 147 145 143 140 142 152 156 165 164 165 163 164 172 173 170 168 173 175 166 151 153 174 188 212 224 240 255 266 270
214 202 194 181 172 166 160 160 160 158 152 149 150 150 148 145 142 137 118 87 111 118 124 134 147 151 150 154 164 164 156 153 155 160 182 198 211 229 239 248 261 268 275